Вернуться в каталог

YAOGAN 2 DEB

АктивенВоенныеPO
NORAD 38263·DEBRIS·🇨🇳 China

Запущен May 25, 2007 с Jiuquan Satellite Launch Center

Loading…

Ближайшие Пролёты (ближайшие 24 часа)

TLE

СвежийSource: Space-Track

Эпоха: Sep 14, 2026, 02:55 UTC

1 38263U 07019C   26257.12169116  .00001139  00000-0  31792-3 0  9997
2 38263  97.8946 136.3804 0196388 107.6110 254.6633 14.37208999   734

Отслеживайте YAOGAN 2 DEB в реальном времени с AllMySat

Download on the App Store